Retour au catalogue

STARLINK-35133

ActifCommunicationsSSO
NORAD 65535·PAYLOAD·🇺🇸 United States

Lancé Sep 6, 2025 depuis Cape Canaveral Space Force Station

Loading…

Prochains Passages (prochaines 24 heures)

TLE

FraisSource: CelesTrak SupGP

Époque: Sep 14, 2026, 20:47 UTC

1 65535C 25200R   26257.86645833 -.00035253  00000+0 -10943-2 0  2573
2 65535  97.2838 324.3844 0000862  90.4645 181.3142 15.33459650    17

Suivez STARLINK-35133 en temps réel avec AllMySat

Download on the App Store